Regional Weather Roundup
Issued by NWS

Home | Current Version | Previous Version | Graphics & Text | Print | Product List | Glossary On
Versions: 1 2 3 4 5 6 7 8 9 10 11 12 13 14 15 16 17 18 19 20 21 22 23 24 25 26 27 28 29 30 31 32 33 34 35 36 37 38 39 40 41 42 43 44 45 46 47 48 49 50
000
ASUS43 KIND 232209
RWRIN

WEATHER ROUNDUP FOR INDIANA
NATIONAL WEATHER SERVICE INDIANAPOLIS IN
600 PM EDT SUN JUL 23 2017

NOTE: "FAIR" INDICATES FEW OR NO CLOUDS BELOW 12,000 FEET WITH NO
SIGNIFICANT WEATHER AND/OR OBSTRUCTIONS TO VISIBILITY.

* - STATION DOES NOT REPORT WEATHER SUCH AS PRECIPITATION OR FOG.

+ - STATION NOT QUALITY CONTROLLED BY THE NATIONAL WEATHER SERVICE.
    USE DATA WITH CAUTION...ESPECIALLY DEWPOINT AND RELATIVE
    HUMIDITY OBSERVATIONS.

INZ001>003-010>013-019-020-232300-
NORTHWEST INDIANA

CITY           SKY/WX    TMP DP  RH WIND       PRES   REMARKS
GARY /AIRPORT/ PTSUNNY   86  66  51 NE9       29.78R
KNOX *+        SUNNY     82  64  54 N6        29.78R
LA PORTE +     SUNNY     83  65  55 N9        29.79R
MICHIGAN CITY+ MOSUNNY   81  64  57 NE6       29.78S
MONTICELLO +   PTSUNNY   83  71  68 S7        29.78F
RENSSELAER +   SUNNY     86  63  45 W8G17     29.79S
VALPARAISO     MOSUNNY   87  65  47 NE7       29.78S

$$

LMZ046-743>745-232300-
SOUTHERN LAKE MICHIGAN

STATION/POSITION TIME  TEMP    WIND        PRES    WAVE
                       AIR SEA DIR/SP/G            HT
                 (UTC) (F)     (DEG/KT/KT) (MB)    (FT)
BURNS HARBOR     2140   81      70/ 11/ 12 1008.8R
MICHIGAN CITY    2140   78      40/ 11/ 12   N/A
5NW MICH CITY    2200   78 77   80/  8/ 10   N/A     1

$$

INZ004-005-014>016-021>024-232300-
NORTH CENTRAL INDIANA

CITY           SKY/WX    TMP DP  RH WIND       PRES   REMARKS
ELKHART        SUNNY     84  63  48 NW9       29.78S
GOSHEN         SUNNY     85  63  47 NW8G20    29.77S
LOGANSPORT +   SUNNY     79  66  65 S5        29.80F
PERU/GRISSOM   SUNNY     80  69  68 W3        29.78F
ROCHESTER +    SUNNY     86  68  54 W6        29.79S
SOUTH BEND     SUNNY     83  64  52 NW13      29.79R
WARSAW +       SUNNY     84  64  51 NW9       29.78R

$$

INZ006>009-017-018-025>027-232300-
NORTHEAST INDIANA

CITY           SKY/WX    TMP DP  RH WIND       PRES   REMARKS
AUBURN +       CLOUDY    77  68  73 CALM      29.78S
FORT WAYNE     CLOUDY    79  66  64 N13G20    29.79R THUNDER
HUNTINGTON +   MOSUNNY   83  73  69 W9G16     29.77S
KENDALLVILLE + MOSUNNY   83  69  61 N8        29.78S

$$

INZ028-029-035-036-043>045-051>053-232300-
WEST CENTRAL INDIANA

CITY           SKY/WX    TMP DP  RH WIND       PRES   REMARKS
GREENCASTLE +  PTSUNNY   79  73  83 E5        29.83S
LAFAYETTE      SUNNY     86  70  58 NW8       29.79S
TERRE HAUTE    PTSUNNY   86  73  65 W12G18    29.82S

$$

INZ030>032-037>040-046>048-054>057-064-065-232300-
CENTRAL INDIANA

CITY           SKY/WX    TMP DP  RH WIND       PRES   REMARKS
CP ATTERBURY + MOSUNNY   72  68  88 W6        29.84S
COLUMBUS       MOSUNNY   73  66  78 W9        29.83S
FRANKFORT +    LGT RAIN  79  67  66 N3        29.83S
GREENWOOD *+   PTSUNNY  N/A N/A N/A W6        29.84S
INDIANAPOLIS   MOSUNNY   78  70  76 W7        29.82S
-EAGLE CREEK   MOSUNNY   82  70  66 VRB5      29.81S
KOKOMO +         N/A     77  69  76 SW7       29.81F
MARION +       CLOUDY    77  70  78 NW8       29.79F
MT COMFORT *+  MOSUNNY   81  72  74 W5        29.83S
SHELBYVILLE    CLOUDY    79  66  64 SW8       29.82S
ZIONSVILLE +   MOSUNNY   83  72  70 W10G16    29.82F

$$

INZ033-034-041-042-049-050-058-059-232300-
EAST CENTRAL INDIANA

CITY           SKY/WX    TMP DP  RH WIND       PRES   REMARKS
MUNCIE         MOSUNNY   83  70  64 W7        29.78F THUNDER
RICHMOND +     MOSUNNY   79  73  83 W9        29.82S

$$

INZ060-061-067>069-081>083-085>088-232300-
SOUTHWEST INDIANA

CITY           SKY/WX    TMP DP  RH WIND       PRES   REMARKS
EVANSVILLE     MOSUNNY   87  69  54 VRB7      29.85F
HUNTINGBURG *+ MOSUNNY   85  74  69 W12       29.85S

$$

INZ062-063-066-070>080-084-089>092-232300-
SOUTH CENTRAL AND SOUTHEAST INDIANA

CITY           SKY/WX    TMP DP  RH WIND       PRES   REMARKS
BEDFORD +      MOSUNNY   84  70  61 W8        29.84S
BLOOMINGTON    MOSUNNY   84  72  67 W8        29.84F
MADISON *+     MOSUNNY   84  70  61 W7        29.86S
NORTH VERNON + LGT RAIN  72  70  94 SW3       29.85R
SEYMOUR +      PTSUNNY  N/A N/A N/A N7        29.83S

$$





USA.gov is the U.S. government's official web portal to all federal, state and local government web resources and services.